map of SLL home
SLL - Airport
Location
City:  Salalah, Oman
Name:Salalah International Airport
ICAO:OOSA
IATA:SLL

Details
Type:Airport (Aerodrome, Airfield)
Use:Public/Civil, Military, International (customs port of entry)
Latitude:1702'19"N (17.038719)
Longitude:5405'29"E (54.091297)
Datum:WGS 1984
Elevation:73 ft (22 m)
Variation:0.93E (WMM2015v2 magnetic declination)
0.04 annual change
Runways:2
Longest:10965 × 148 ft (3342 × 45 m), paved

Time
Time Zone:UTC+4
Local Time:

Weather
METAR:OOSA 041350Z 15007KT 9999 FEW025 26/18 Q1017 NOSIG
TAF:OOSA 041105Z 0412/0518 16009KT 9999 FEW025
BECMG 0415/0417 VRB03KT
BECMG 0508/0510 17008KT

Related Locations
Nearby:
Farthest:REA: 11747 mi / 18906 km
Reao, PF

Find:

   beyond  
but within

Other Information
Maps:
NOTAMs:
Links:
Sources:

  
  • flag of Oman
  

Airport Diagram

Airport diagram for SLL

Larger airport diagram (OBSOLETE) from NGA

Sectional Chart

Flight Planning
at skyvector.com

Satellite Image

Google Maps Satellite view

 

Copyright © 2004-2019 Karl L. Swartz. All rights reserved.
The Great Circle Mapper name and logo are trademarks of the Great Circle Mapper.
All other trademarks mentioned herein belong to their respective owners.
Please see credits for attibutions and further copyright information.

  Follow gcmap on Facebook Follow gcmap on Twitter GCmap on LinkedIn

hCard Microformat

Geo Microformat